• In Germany
  • List of Countries
  • For 7 days
  • Water Temperature
  • Satellite Maps
  • Weather Map
  • Weather Widgets
  • user-avatar
    Login

    Hourly Weather Gjirokaster

    Today, 24 February, Saturday

    Time Temperature Precipitation Wind Pressure Humidity
    00:00 0°C° 0 mm 4 mps 642 mmHg 81%
    01:00 0°C° 0 mm 4 mps 642 mmHg 81%
    02:00 0°C° 0.7 mm 5 mps 642 mmHg 83%
    03:00 0°C° 0.7 mm 5 mps 642 mmHg 85%
    04:00 0°C° 0.7 mm 5 mps 641 mmHg 87%
    05:00 0°C° 1.5 mm 5 mps 642 mmHg 89%
    06:00 -1°C° 1.5 mm 4 mps 642 mmHg 91%
    07:00 -1°C° 1.5 mm 4 mps 642 mmHg 93%
    08:00 +1°C° 0.5 mm 3 mps 642 mmHg 90%
    09:00 +1°C° 0.5 mm 3 mps 643 mmHg 86%
    10:00 +2°C° 0.5 mm 3 mps 643 mmHg 83%
    11:00 +3°C° 0.1 mm 3 mps 643 mmHg 78%
    12:00 +4°C° 0.1 mm 3 mps 643 mmHg 74%
    13:00 +4°C° 0.1 mm 3 mps 643 mmHg 69%
    14:00 +5°C° 0.2 mm 2 mps 643 mmHg 71%
    15:00 +5°C° 0.2 mm 2 mps 643 mmHg 73%
    16:00 +5°C° 0.2 mm 2 mps 643 mmHg 75%
    17:00 +5°C° 0.3 mm 1 mps 643 mmHg 80%
    18:00 +4°C° 0.3 mm 1 mps 643 mmHg 84%
    19:00 +3°C° 0.3 mm 1 mps 643 mmHg 89%
    20:00 +3°C° 0.2 mm 1 mps 643 mmHg 90%
    21:00 +3°C° 0.2 mm 1 mps 644 mmHg 92%
    22:00 +2°C° 0.2 mm 1 mps 644 mmHg 93%
    23:00 +1°C° 0.1 mm 2 mps 644 mmHg 93%

    Tomorrow, 25 February, Sunday

    Time Temperature Precipitation Wind Pressure Humidity
    00:00 +1°C° 0.1 mm 2 mps 644 mmHg 93%
    01:00 +1°C° 0.1 mm 2 mps 644 mmHg 93%
    02:00 +1°C° 0.2 mm 2 mps 644 mmHg 93%
    03:00 -1°C° 0.2 mm 2 mps 644 mmHg 92%
    04:00 -1°C° 0.2 mm 3 mps 643 mmHg 92%
    05:00 -1°C° 0.2 mm 3 mps 644 mmHg 91%
    06:00 -1°C° 0.2 mm 3 mps 644 mmHg 91%
    07:00 -1°C° 0.2 mm 3 mps 644 mmHg 91%
    08:00 0°C° 0.3 mm 3 mps 644 mmHg 89%
    09:00 0°C° 0.3 mm 4 mps 644 mmHg 87%
    10:00 +1°C° 0.3 mm 4 mps 645 mmHg 85%
    11:00 +1°C° 0.6 mm 4 mps 645 mmHg 83%
    12:00 +3°C° 0.6 mm 4 mps 644 mmHg 80%
    13:00 +3°C° 0.6 mm 4 mps 644 mmHg 78%
    14:00 +1°C° 0.9 mm 4 mps 644 mmHg 80%
    15:00 +1°C° 0.9 mm 4 mps 643 mmHg 83%
    16:00 0°C° 0.9 mm 4 mps 643 mmHg 86%
    17:00 0°C° 2.8 mm 4 mps 642 mmHg 87%
    18:00 -1°C° 2.8 mm 4 mps 642 mmHg 89%
    19:00 -1°C° 2.8 mm 4 mps 642 mmHg 91%
    20:00 -1°C° 4.1 mm 4 mps 641 mmHg 92%
    21:00 -2°C° 4.1 mm 4 mps 641 mmHg 92%
    22:00 -2°C° 4.1 mm 4 mps 641 mmHg 93%
    23:00 -2°C° 4.3 mm 4 mps 640 mmHg 93%

    Day after tomorrow, 26 February, Monday

    Time Temperature Precipitation Wind Pressure Humidity
    00:00 -2°C° 4.3 mm 4 mps 640 mmHg 93%
    01:00 -3°C° 4.3 mm 4 mps 639 mmHg 92%
    02:00 -3°C° 5.5 mm 4 mps 638 mmHg 93%
    03:00 -3°C° 5.5 mm 4 mps 638 mmHg 93%
    04:00 -4°C° 5.5 mm 4 mps 637 mmHg 93%
    05:00 -4°C° 2.1 mm 4 mps 637 mmHg 93%
    06:00 -4°C° 2.1 mm 4 mps 637 mmHg 92%
    07:00 -5°C° 2.1 mm 4 mps 637 mmHg 91%
    08:00 -4°C° 0.2 mm 4 mps 637 mmHg 90%
    09:00 -4°C° 0.2 mm 3 mps 638 mmHg 89%
    10:00 -2°C° 0.2 mm 3 mps 638 mmHg 87%
    11:00 -2°C° 0.1 mm 3 mps 638 mmHg 86%
    12:00 -1°C° 0.1 mm 2 mps 639 mmHg 85%
    13:00 -1°C° 0.1 mm 2 mps 639 mmHg 84%
    14:00 -1°C° 0 mm 2 mps 639 mmHg 84%
    15:00 -1°C° 0 mm 2 mps 639 mmHg 83%
    16:00 +1°C° 0 mm 2 mps 640 mmHg 83%
    17:00 -1°C° 0 mm 2 mps 640 mmHg 84%
    18:00 -3°C° 0 mm 2 mps 640 mmHg 86%
    19:00 -4°C° 0 mm 2 mps 640 mmHg 87%
    20:00 -3°C° 0.1 mm 2 mps 640 mmHg 88%
    21:00 -4°C° 0.1 mm 3 mps 641 mmHg 89%
    22:00 -4°C° 0.1 mm 4 mps 641 mmHg 90%
    23:00 -4°C° 0.4 mm 3 mps 641 mmHg 92%

    27 February, Tuesday

    Time Temperature Precipitation Wind Pressure Humidity
    00:00 -2°C° 0.4 mm 3 mps 641 mmHg 93%
    01:00 -2°C° 0.4 mm 3 mps 641 mmHg 95%
    02:00 -2°C° 0.1 mm 3 mps 641 mmHg 94%
    03:00 -2°C° 0.1 mm 3 mps 641 mmHg 92%
    04:00 -2°C° 0.1 mm 2 mps 641 mmHg 91%
    05:00 -2°C° 0 mm 2 mps 641 mmHg 91%
    06:00 -3°C° 0 mm 2 mps 641 mmHg 91%
    07:00 -3°C° 0 mm 2 mps 642 mmHg 91%
    08:00 -2°C° 0 mm 2 mps 642 mmHg 89%
    09:00 -1°C° 0 mm 3 mps 642 mmHg 87%
    10:00 -1°C° 0 mm 4 mps 643 mmHg 85%
    11:00 -1°C° 0.4 mm 4 mps 643 mmHg 86%
    12:00 -1°C° 0.4 mm 4 mps 643 mmHg 88%
    13:00 -1°C° 0.4 mm 4 mps 642 mmHg 90%
    14:00 -1°C° 0.6 mm 4 mps 642 mmHg 90%
    15:00 0°C° 0.6 mm 4 mps 642 mmHg 91%
    16:00 0°C° 0.6 mm 4 mps 642 mmHg 91%
    17:00 0°C° 1.3 mm 3 mps 642 mmHg 93%
    18:00 0°C° 1.3 mm 3 mps 642 mmHg 95%
    19:00 0°C° 1.3 mm 3 mps 642 mmHg 97%
    20:00 0°C° 1.2 mm 3 mps 642 mmHg 96%
    21:00 0°C° 1.2 mm 3 mps 642 mmHg 96%
    22:00 0°C° 1.2 mm 3 mps 642 mmHg 96%
    23:00 +1°C° 1.3 mm 2 mps 642 mmHg 96%

    28 February, Wednesday

    Time Temperature Precipitation Wind Pressure Humidity
    00:00 -1°C° 1.3 mm 2 mps 642 mmHg 96%
    01:00 -1°C° 1.3 mm 2 mps 642 mmHg 96%
    02:00 -1°C° 0.4 mm 2 mps 642 mmHg 95%
    03:00 -1°C° 0.4 mm 3 mps 642 mmHg 95%
    04:00 -2°C° 0.4 mm 4 mps 642 mmHg 94%
    05:00 -2°C° 0 mm 4 mps 643 mmHg 93%
    06:00 -2°C° 0 mm 4 mps 643 mmHg 93%
    07:00 -3°C° 0 mm 4 mps 643 mmHg 92%
    08:00 -2°C° 0 mm 4 mps 644 mmHg 88%
    09:00 -1°C° 0 mm 4 mps 645 mmHg 84%
    10:00 0°C° 0 mm 4 mps 646 mmHg 80%
    11:00 0°C° 0 mm 4 mps 646 mmHg 77%
    12:00 +1°C° 0 mm 4 mps 646 mmHg 73%
    13:00 +3°C° 0 mm 4 mps 647 mmHg 69%
    14:00 +1°C° 0 mm 4 mps 647 mmHg 69%
    15:00 +1°C° 0 mm 4 mps 647 mmHg 69%
    16:00 +2°C° 0 mm 3 mps 648 mmHg 68%
    17:00 +1°C° 0 mm 3 mps 648 mmHg 70%
    18:00 -1°C° 0 mm 3 mps 648 mmHg 72%
    19:00 -2°C° 0 mm 2 mps 648 mmHg 74%
    20:00 -2°C° 0 mm 2 mps 649 mmHg 73%
    21:00 -2°C° 0 mm 2 mps 649 mmHg 71%
    22:00 -3°C° 0 mm 2 mps 650 mmHg 69%
    23:00 -3°C° 0 mm 2 mps 650 mmHg 68%

    1 March, Thursday

    Time Temperature Precipitation Wind Pressure Humidity
    00:00 -1°C° 0 mm 1 mps 650 mmHg 66%
    01:00 -1°C° 0 mm 1 mps 650 mmHg 65%
    02:00 0°C° 0 mm 1 mps 650 mmHg 65%
    03:00 -2°C° 0 mm 2 mps 650 mmHg 64%
    04:00 -2°C° 0 mm 2 mps 650 mmHg 64%
    05:00 -2°C° 0 mm 2 mps 650 mmHg 65%
    06:00 -2°C° 0 mm 2 mps 650 mmHg 66%
    07:00 -1°C° 0 mm 2 mps 651 mmHg 66%
    08:00 0°C° 0 mm 3 mps 651 mmHg 65%
    09:00 +2°C° 0 mm 3 mps 652 mmHg 65%
    10:00 +4°C° 0 mm 3 mps 652 mmHg 64%
    11:00 +5°C° 0 mm 3 mps 652 mmHg 63%
    12:00 +7°C° 0 mm 3 mps 652 mmHg 62%
    13:00 +6°C° 0 mm 4 mps 652 mmHg 62%
    14:00 +6°C° 0 mm 4 mps 652 mmHg 64%
    15:00 +6°C° 0 mm 4 mps 651 mmHg 67%
    16:00 +5°C° 0 mm 4 mps 651 mmHg 69%
    17:00 +4°C° 0 mm 4 mps 651 mmHg 72%
    18:00 +3°C° 0 mm 4 mps 651 mmHg 75%
    19:00 +1°C° 0 mm 4 mps 651 mmHg 78%
    20:00 0°C° 0 mm 4 mps 650 mmHg 76%
    21:00 0°C° 0 mm 4 mps 650 mmHg 73%
    22:00 0°C° 0 mm 4 mps 650 mmHg 71%
    23:00 0°C° 0 mm 4 mps 650 mmHg 67%
    Show more